• In Russia
  • List of Countries
  • For 7 days
  • Water Temperature
  • Satellite Maps
  • Weather Map
  • Weather Widgets
  • user-avatar
    Login

    Hourly Weather Igls

    Today, 24 March, Sunday

    Time Temperature Precipitation Wind Pressure Humidity
    00:00 +7°C° 0 mm 1 mps 689 mmHg 82%
    01:00 +6°C° 0 mm 2 mps 689 mmHg 77%
    02:00 +6°C° 0 mm 2 mps 689 mmHg 76%
    03:00 +6°C° 0 mm 2 mps 689 mmHg 74%
    04:00 +5°C° 0 mm 2 mps 689 mmHg 73%
    05:00 +5°C° 0 mm 2 mps 689 mmHg 71%
    06:00 +6°C° 0 mm 2 mps 688 mmHg 69%
    07:00 +6°C° 0 mm 2 mps 689 mmHg 64%
    08:00 +9°C° 0 mm 2 mps 689 mmHg 62%
    09:00 +12°C° 0 mm 1 mps 688 mmHg 60%
    10:00 +15°C° 0 mm 1 mps 688 mmHg 58%
    11:00 +16°C° 0 mm 1 mps 688 mmHg 56%
    12:00 +16°C° 0 mm 1 mps 688 mmHg 55%
    13:00 +16°C° 0 mm 0 mps 688 mmHg 53%
    14:00 +18°C° 0 mm 1 mps 687 mmHg 57%
    15:00 +16°C° 0 mm 1 mps 687 mmHg 60%
    16:00 +16°C° 0 mm 1 mps 686 mmHg 64%
    17:00 +13°C° 0.1 mm 1 mps 686 mmHg 72%
    18:00 +11°C° 0.1 mm 1 mps 686 mmHg 81%
    19:00 +9°C° 0.1 mm 1 mps 686 mmHg 89%
    20:00 +9°C° 0.1 mm 1 mps 686 mmHg 90%
    21:00 +8°C° 0.1 mm 1 mps 686 mmHg 92%
    22:00 +8°C° 0.1 mm 1 mps 686 mmHg 94%
    23:00 +8°C° 0.1 mm 1 mps 686 mmHg 94%

    Tomorrow, 25 March, Monday

    Time Temperature Precipitation Wind Pressure Humidity
    00:00 +7°C° 0.1 mm 1 mps 686 mmHg 95%
    01:00 +7°C° 0.1 mm 1 mps 686 mmHg 96%
    02:00 +7°C° 0 mm 1 mps 685 mmHg 96%
    03:00 +6°C° 0 mm 1 mps 685 mmHg 95%
    04:00 +6°C° 0 mm 1 mps 685 mmHg 95%
    05:00 +6°C° 0.1 mm 1 mps 685 mmHg 95%
    06:00 +6°C° 0.1 mm 1 mps 685 mmHg 94%
    07:00 +6°C° 0.1 mm 1 mps 684 mmHg 94%
    08:00 +7°C° 0.1 mm 1 mps 684 mmHg 89%
    09:00 +6°C° 0.1 mm 2 mps 684 mmHg 85%
    10:00 +7°C° 0.1 mm 2 mps 684 mmHg 80%
    11:00 +7°C° 0.3 mm 2 mps 684 mmHg 80%
    12:00 +7°C° 0.3 mm 3 mps 683 mmHg 80%
    13:00 +7°C° 0.3 mm 3 mps 683 mmHg 80%
    14:00 +5°C° 0.5 mm 3 mps 683 mmHg 83%
    15:00 +4°C° 0.5 mm 3 mps 682 mmHg 85%
    16:00 +3°C° 0.5 mm 3 mps 682 mmHg 88%
    17:00 +2°C° 1 mm 3 mps 682 mmHg 90%
    18:00 +1°C° 1 mm 3 mps 683 mmHg 92%
    19:00 0°C° 1 mm 3 mps 683 mmHg 94%
    20:00 -1°C° 0.5 mm 3 mps 684 mmHg 94%
    21:00 -1°C° 0.5 mm 3 mps 684 mmHg 93%
    22:00 -2°C° 0.5 mm 3 mps 685 mmHg 93%
    23:00 -2°C° 0.2 mm 3 mps 685 mmHg 93%

    Day after tomorrow, 26 March, Tuesday

    Time Temperature Precipitation Wind Pressure Humidity
    00:00 -2°C° 0.2 mm 2 mps 686 mmHg 92%
    01:00 -3°C° 0.2 mm 2 mps 686 mmHg 92%
    02:00 -3°C° 0.2 mm 2 mps 687 mmHg 92%
    03:00 -3°C° 0.2 mm 2 mps 687 mmHg 92%
    04:00 -3°C° 0.2 mm 2 mps 687 mmHg 91%
    05:00 -3°C° 0.1 mm 2 mps 688 mmHg 90%
    06:00 -1°C° 0.1 mm 1 mps 688 mmHg 89%
    07:00 -1°C° 0.1 mm 1 mps 688 mmHg 89%
    08:00 0°C° 0 mm 1 mps 689 mmHg 82%
    09:00 +1°C° 0 mm 2 mps 689 mmHg 76%
    10:00 +2°C° 0 mm 2 mps 690 mmHg 70%
    11:00 +3°C° 0 mm 2 mps 689 mmHg 69%
    12:00 +3°C° 0 mm 2 mps 689 mmHg 68%
    13:00 +4°C° 0 mm 2 mps 689 mmHg 67%
    14:00 +4°C° 0 mm 2 mps 689 mmHg 68%
    15:00 +4°C° 0 mm 2 mps 689 mmHg 69%
    16:00 +3°C° 0 mm 2 mps 689 mmHg 70%
    17:00 +3°C° 0 mm 1 mps 689 mmHg 77%
    18:00 +1°C° 0 mm 1 mps 689 mmHg 85%
    19:00 -1°C° 0 mm 1 mps 689 mmHg 92%
    20:00 -1°C° 0 mm 1 mps 689 mmHg 92%
    21:00 -1°C° 0 mm 1 mps 690 mmHg 92%
    22:00 -2°C° 0 mm 1 mps 690 mmHg 92%
    23:00 -2°C° 0 mm 1 mps 690 mmHg 90%

    27 March, Wednesday

    Time Temperature Precipitation Wind Pressure Humidity
    00:00 -2°C° 0 mm 1 mps 690 mmHg 89%
    01:00 -2°C° 0 mm 1 mps 690 mmHg 87%
    02:00 -2°C° 0 mm 1 mps 690 mmHg 86%
    03:00 -2°C° 0 mm 1 mps 690 mmHg 85%
    04:00 -2°C° 0 mm 0 mps 690 mmHg 84%
    05:00 -1°C° 0 mm 1 mps 690 mmHg 83%
    06:00 0°C° 0 mm 1 mps 690 mmHg 82%
    07:00 0°C° 0 mm 1 mps 690 mmHg 82%
    08:00 +1°C° 0 mm 1 mps 691 mmHg 78%
    09:00 +3°C° 0 mm 1 mps 691 mmHg 74%
    10:00 +3°C° 0 mm 2 mps 691 mmHg 70%
    11:00 +3°C° 0 mm 2 mps 691 mmHg 72%
    12:00 +4°C° 0 mm 2 mps 691 mmHg 74%
    13:00 +4°C° 0 mm 2 mps 691 mmHg 75%
    14:00 +4°C° 0.1 mm 2 mps 690 mmHg 76%
    15:00 +4°C° 0.1 mm 2 mps 690 mmHg 77%
    16:00 +4°C° 0.1 mm 2 mps 690 mmHg 78%
    17:00 +3°C° 0 mm 2 mps 690 mmHg 84%
    18:00 +2°C° 0 mm 2 mps 691 mmHg 89%
    19:00 +2°C° 0 mm 1 mps 691 mmHg 94%
    20:00 +1°C° 0 mm 1 mps 691 mmHg 94%
    21:00 +1°C° 0 mm 1 mps 692 mmHg 94%
    22:00 0°C° 0 mm 1 mps 692 mmHg 94%
    23:00 0°C° 0 mm 1 mps 692 mmHg 93%

    28 March, Thursday

    Time Temperature Precipitation Wind Pressure Humidity
    00:00 -1°C° 0 mm 1 mps 692 mmHg 92%
    01:00 -1°C° 0 mm 1 mps 692 mmHg 91%
    02:00 -1°C° 0 mm 1 mps 692 mmHg 89%
    03:00 -1°C° 0 mm 1 mps 692 mmHg 88%
    04:00 -1°C° 0 mm 1 mps 692 mmHg 87%
    05:00 -1°C° 0 mm 1 mps 692 mmHg 84%
    06:00 0°C° 0 mm 1 mps 692 mmHg 82%
    07:00 0°C° 0 mm 1 mps 692 mmHg 79%
    08:00 +2°C° 0 mm 1 mps 692 mmHg 74%
    09:00 +5°C° 0 mm 1 mps 692 mmHg 69%
    10:00 +7°C° 0 mm 1 mps 693 mmHg 64%
    11:00 +8°C° 0 mm 1 mps 692 mmHg 65%
    12:00 +8°C° 0 mm 1 mps 692 mmHg 66%
    13:00 +8°C° 0 mm 2 mps 692 mmHg 66%
    14:00 +8°C° 0 mm 2 mps 691 mmHg 70%
    15:00 +8°C° 0 mm 2 mps 691 mmHg 73%
    16:00 +7°C° 0 mm 2 mps 691 mmHg 76%
    17:00 +6°C° 0 mm 2 mps 691 mmHg 83%
    18:00 +6°C° 0 mm 1 mps 691 mmHg 89%
    19:00 +4°C° 0 mm 1 mps 691 mmHg 95%
    20:00 +4°C° 0 mm 1 mps 691 mmHg 96%
    21:00 +3°C° 0 mm 1 mps 692 mmHg 96%
    22:00 +3°C° 0 mm 1 mps 692 mmHg 96%
    23:00 +3°C° 0 mm 1 mps 692 mmHg 94%

    29 March, Friday

    Time Temperature Precipitation Wind Pressure Humidity
    00:00 +2°C° 0 mm 1 mps 692 mmHg 92%
    01:00 +2°C° 0 mm 1 mps 692 mmHg 91%
    02:00 +2°C° 0 mm 1 mps 692 mmHg 89%
    03:00 +2°C° 0 mm 1 mps 692 mmHg 87%
    04:00 +2°C° 0 mm 1 mps 692 mmHg 85%
    05:00 +2°C° 0 mm 1 mps 692 mmHg 83%
    06:00 +3°C° 0 mm 1 mps 692 mmHg 81%
    07:00 +3°C° 0 mm 1 mps 692 mmHg 80%
    08:00 +5°C° 0 mm 1 mps 692 mmHg 73%
    09:00 +8°C° 0 mm 1 mps 693 mmHg 66%
    10:00 +9°C° 0 mm 0 mps 693 mmHg 59%
    11:00 +10°C° 0 mm 0 mps 693 mmHg 58%
    12:00 +11°C° 0 mm 1 mps 692 mmHg 58%
    13:00 +12°C° 0 mm 1 mps 692 mmHg 57%
    14:00 +11°C° 0 mm 1 mps 692 mmHg 62%
    15:00 +11°C° 0 mm 1 mps 691 mmHg 66%
    16:00 +10°C° 0 mm 1 mps 691 mmHg 71%
    17:00 +8°C° 0 mm 1 mps 691 mmHg 78%
    18:00 +7°C° 0 mm 1 mps 691 mmHg 85%
    19:00 +4°C° 0 mm 0 mps 691 mmHg 92%
    20:00 +4°C° 0 mm 0 mps 691 mmHg 92%
    21:00 +4°C° 0 mm 1 mps 691 mmHg 92%
    22:00 +4°C° 0 mm 1 mps 692 mmHg 92%
    23:00 +4°C° 0 mm 1 mps 691 mmHg 91%
    Show more